Location: Izdebno
(52.6670°N, 16.2170°E)
Time: 10:51:50
(UTC+01:00)

Transit 2A - Pass Details

Date: 07 February 2023
Orbit: 591 x 964 km, 66.7° (Epoch: 21 March)

Event Time Altitude Azimuth Distance (km) Brightness Sun altitude
Rises 20:17:54 0° 296° (WNW) 3,274 10.4 -31.3°
Reaches altitude 10° 20:20:54 10° 314° (NW) 2,417 9.3 -31.8°
Maximum altitude 20:25:00 20° 1° (N) 1,887 8.1 -32.4°
Enters shadow 20:25:19 20° 5° (N) 1,897 8.1 -32.4°
Drops below altitude 10° 20:29:21 10° 47° (NE) 2,590 - -33.0°
Sets 20:32:42 0° 64° (ENE) 3,584 - -33.5°
